Probability
55 65 65 58 58 58 58 55 48 48 48 45 48 48 45 42 39 35 39 42 42 45 45 39 35 42 32 35 32 32 23 19 19 10 6 10 13 13 23 19 16 13 10
58 61 58 52 48 55 61 55 52 48 48 45 52 48 45 35 39 35 42 39 39 39 35 39 35 32 39 35 32 26 23 23 6 6 6 0 3 13 6 13 10 10 10
48 58 55 55 48 45 45 45 52 52 48 42 42 42 45 42 35 35 39 35 39 39 35 35 35 35 35 29 26 26 29 19 10 3 3 0 0 0 6 10 10 10 10
52 61 55 58 48 45 45 55 52 48 48 45 42 42 45 39 35 42 42 39 35 35 35 35 35 32 32 23 19 23 26 26 16 6 3 3 3 6 6 6 10 10 10
42 52 55 58 52 48 42 45 45 45 45 45 45 48 42 35 39 42 35 32 29 32 26 29 29 29 29 29 29 26 23 13 10 10 6 3 6 6 6 6 6 10 10
42 52 55 61 52 45 42 45 45 45 42 42 45 42 45 45 42 35 32 32 29 26 26 23 29 29 29 29 26 26 19 19 10 10 3 0 0 0 6 3 3 3 10
39 42 48 52 48 48 45 42 45 42 42 42 45 42 42 42 35 32 32 26 23 23 26 26 23 26 26 23 23 19 19 16 13 6 6 3 3 0 3 3 3 3 6
35 45 45 52 55 45 39 39 45 39 35 39 42 39 45 35 26 26 23 23 23 19 26 23 23 23 19 13 16 16 10 10 13 6 3 6 6 3 3 6 3 3 0
39 42 48 48 45 42 42 39 35 39 35 35 35 39 32 32 23 26 23 23 23 19 19 23 23 23 23 10 13 13 10 10 13 3 6 0 3 6 6 6 6 3 3
35 42 48 45 39 32 32 35 39 35 32 32 32 26 26 23 23 23 23 23 23 23 26 26 26 23 13 10 13 6 6 10 3 6 6 6 3 3 6 6 6 3 3
32 32 29 29 32 35 35 32 29 26 26 19 19 23 23 19 26 23 19 23 19 23 16 16 16 10 13 13 10 10 6 0 3 3 0 3 3 3 3 3 6 6 6
32 26 23 23 26 29 26 26 23 19 19 16 16 23 19 16 19 19 19 23 19 16 16 16 16 10 6 6 10 6 0 0 0 0 0 3 3 3 3 3 3 3 3
23 29 29 23 16 26 19 19 19 19 19 19 19 19 19 16 16 19 23 23 23 16 16 19 13 6 6 6 3 3 0 0 0 0 0 3 3 3 3 3 3 3 3
29 35 32 23 16 19 19 19 19 19 16 16 16 19 26 29 26 23 23 23 26 26 16 13 10 10 10 6 3 3 0 0 0 0 3 3 3 3 3 3 3 3 3
26 32 26 19 19 19 16 13 16 19 19 19 16 23 19 23 19 23 23 23 23 13 16 16 6 6 10 3 0 0 0 0 0 0 3 3 3 0 3 3 6 3 0
19 13 23 23 16 10 10 13 16 16 19 16 16 16 16 13 13 16 19 16 16 16 16 13 6 10 0 0 0 0 0 0 0 0 0 3 0 0 0 0 0 0 0
13 10 23 23 10 10 13 13 13 16 16 13 16 13 13 16 13 6 16 16 19 16 16 16 10 3 0 0 0 0 0 0 0 0 6 3 0 0 0 0 0 0 0
16 13 26 19 10 13 10 13 10 10 10 13 16 13 13 10 6 6 10 16 19 19 16 16 10 10 3 0 0 0 0 0 0 0 3 3 0 3 3 3 0 0 0
23 16 26 23 13 13 10 13 10 10 10 10 3 3 3 6 10 13 10 19 19 16 16 16 13 10 6 0 0 0 0 0 3 3 0 3 3 3 0 0 3 0 0
26 23 19 16 16 16 13 13 13 13 13 10 10 6 10 13 16 13 19 19 16 16 13 13 10 10 6 3 0 0 0 0 3 3 0 0 0 0 0 0 0 0 0
26 23 16 13 19 19 13 13 13 10 10 10 10 10 10 13 16 10 16 19 16 13 10 10 6 6 10 3 0 0 0 0 0 0 0 0 0 0 0 0 0 0 0
19 13 19 16 16 16 13 16 16 16 13 13 10 6 10 6 3 16 16 16 16 10 10 10 6 3 6 0 0 0 0 0 0 0 0 0 0 0 0 0 0 0 0
19 19 19 16 16 16 13 13 13 10 10 10 6 6 6 10 13 10 13 13 10 6 3 3 6 6 6 0 0 0 0 0 0 0 0 0 0 0 0 0 0 0 0
23 23 19 13 13 13 13 19 10 10 10 10 10 10 6 10 10 16 13 6 6 6 3 3 6 3 3 0 0 0 0 0 0 0 0 0 0 0 0 0 0 0 0
16 19 19 13 6 6 10 10 10 10 10 6 6 13 10 10 10 10 6 3 10 0 0 3 0 0 0 0 0 0 0 0 0 0 0 0 0 0 0 0 0 0 0
10 26 23 13 6 6 6 6 6 6 10 6 6 10 10 10 6 3 3 0 0 0 0 0 0 0 0 0 0 0 0 0 0 0 0 0 0 0 0 0 0 0 0
Height
5837 5835 5834 5833 5832 5831 5830 5829 5828 5827 5826 5825 5824 5823 5822 5821 5819 5817 5814 5812 5810 5807 5804 5802 5800 5798 5795 5793 5791 5789 5786 5784 5783 5781 5779 5778 5777 5776 5774 5773 5772 5771 5771
5833 5831 5830 5829 5828 5827 5826 5825 5824 5823 5822 5821 5820 5818 5817 5816 5814 5812 5810 5807 5804 5802 5799 5797 5795 5792 5790 5788 5785 5783 5781 5779 5777 5775 5774 5772 5772 5770 5768 5766 5765 5764 5763
5829 5828 5826 5825 5824 5823 5822 5821 5820 5819 5818 5817 5816 5814 5813 5811 5809 5807 5805 5802 5799 5796 5794 5792 5789 5787 5785 5782 5780 5778 5776 5774 5772 5769 5768 5766 5765 5764 5762 5760 5758 5757 5757
5825 5823 5822 5821 5820 5819 5817 5816 5816 5815 5814 5813 5811 5810 5808 5806 5804 5801 5799 5796 5793 5789 5787 5786 5783 5781 5779 5777 5775 5772 5770 5768 5766 5764 5762 5760 5758 5757 5756 5754 5752 5751 5750
5820 5819 5817 5816 5815 5814 5813 5812 5811 5811 5810 5808 5806 5805 5803 5801 5799 5796 5794 5790 5787 5784 5781 5780 5777 5775 5773 5771 5769 5767 5765 5763 5761 5759 5757 5754 5752 5750 5749 5748 5747 5745 5744
5816 5815 5813 5812 5811 5810 5809 5807 5806 5806 5805 5803 5802 5800 5798 5796 5793 5791 5789 5785 5782 5779 5776 5774 5772 5770 5768 5765 5763 5761 5759 5757 5755 5753 5751 5749 5747 5745 5743 5741 5740 5739 5737
5811 5810 5809 5807 5806 5805 5804 5803 5802 5801 5800 5798 5797 5795 5793 5790 5788 5786 5783 5780 5777 5774 5771 5769 5767 5764 5762 5760 5758 5756 5754 5751 5749 5747 5745 5743 5741 5739 5737 5735 5734 5732 5731
5805 5804 5803 5802 5801 5800 5799 5798 5797 5796 5795 5793 5792 5790 5788 5785 5783 5781 5778 5775 5772 5769 5767 5764 5762 5759 5757 5755 5753 5751 5748 5746 5744 5742 5739 5737 5735 5732 5730 5729 5727 5726 5725
5801 5799 5798 5797 5796 5795 5794 5793 5792 5790 5789 5788 5787 5785 5783 5781 5778 5776 5773 5770 5767 5765 5762 5759 5757 5754 5752 5749 5747 5745 5743 5741 5738 5736 5733 5730 5728 5726 5724 5722 5720 5720 5718
5796 5795 5793 5791 5789 5790 5789 5788 5787 5786 5785 5783 5782 5780 5778 5776 5773 5771 5768 5766 5763 5760 5758 5756 5753 5750 5747 5745 5742 5740 5738 5735 5732 5730 5727 5724 5722 5719 5717 5715 5714 5712 5711
5791 5789 5787 5786 5786 5785 5784 5783 5782 5781 5779 5778 5776 5775 5773 5770 5768 5766 5763 5761 5759 5756 5754 5752 5749 5746 5743 5740 5738 5735 5733 5730 5727 5724 5721 5718 5715 5713 5711 5709 5707 5705 5703
5786 5783 5782 5781 5781 5781 5780 5779 5777 5776 5774 5773 5772 5770 5768 5766 5764 5762 5759 5757 5754 5752 5750 5747 5744 5741 5738 5736 5733 5730 5727 5724 5721 5718 5715 5712 5709 5707 5704 5702 5700 5699 5697
5780 5779 5777 5777 5777 5776 5775 5774 5772 5771 5770 5769 5767 5765 5764 5762 5760 5758 5755 5753 5751 5748 5746 5743 5740 5737 5734 5731 5728 5725 5722 5719 5716 5713 5709 5707 5704 5701 5699 5696 5694 5692 5690
5776 5774 5773 5771 5771 5771 5771 5769 5768 5767 5766 5765 5763 5761 5760 5758 5756 5754 5752 5749 5747 5745 5742 5739 5736 5733 5730 5727 5723 5720 5716 5714 5711 5708 5704 5701 5699 5696 5693 5691 5688 5686 5684
5772 5770 5770 5769 5769 5768 5766 5765 5764 5763 5762 5760 5759 5757 5756 5754 5752 5750 5748 5746 5743 5741 5738 5735 5732 5729 5726 5722 5719 5715 5713 5709 5706 5703 5699 5696 5693 5690 5688 5685 5682 5680 5677
5769 5768 5766 5766 5765 5764 5762 5761 5759 5758 5757 5756 5755 5753 5752 5750 5748 5746 5744 5742 5740 5737 5734 5731 5728 5725 5721 5718 5714 5711 5708 5705 5701 5698 5694 5691 5688 5685 5682 5679 5677 5674 5671
5765 5764 5763 5762 5761 5760 5758 5757 5755 5754 5753 5752 5751 5749 5748 5746 5744 5742 5740 5738 5736 5734 5731 5728 5725 5721 5717 5714 5711 5708 5704 5700 5697 5693 5690 5686 5683 5680 5677 5674 5671 5668 5665
5762 5761 5759 5759 5758 5757 5755 5753 5751 5750 5749 5748 5747 5746 5744 5743 5741 5739 5737 5735 5733 5730 5727 5725 5721 5718 5714 5711 5708 5704 5700 5696 5692 5689 5685 5681 5678 5674 5671 5668 5665 5662 5659
5759 5758 5757 5756 5755 5754 5752 5750 5748 5747 5746 5746 5744 5743 5741 5740 5738 5736 5734 5732 5730 5727 5724 5721 5718 5715 5711 5707 5704 5700 5697 5693 5689 5684 5680 5676 5673 5669 5665 5662 5659 5656 5653
5756 5756 5755 5754 5753 5751 5750 5748 5747 5746 5745 5743 5742 5740 5739 5737 5735 5733 5731 5729 5727 5724 5721 5718 5715 5711 5707 5704 5700 5697 5693 5689 5685 5680 5675 5671 5667 5663 5659 5656 5653 5650 5646
5754 5753 5752 5751 5751 5749 5748 5747 5745 5744 5743 5742 5740 5739 5737 5735 5733 5731 5729 5726 5724 5721 5718 5715 5711 5707 5704 5700 5697 5693 5689 5684 5680 5675 5670 5666 5661 5657 5653 5650 5646 5643 5640
5751 5751 5750 5749 5748 5747 5746 5745 5744 5743 5741 5740 5738 5737 5735 5732 5730 5728 5726 5723 5720 5717 5714 5711 5708 5704 5700 5697 5693 5689 5684 5680 5675 5671 5666 5661 5657 5653 5648 5645 5641 5637 5634
5748 5748 5748 5747 5746 5745 5744 5743 5742 5741 5739 5738 5736 5734 5732 5730 5728 5725 5723 5720 5717 5714 5711 5708 5704 5700 5697 5693 5689 5685 5681 5676 5671 5667 5662 5657 5653 5649 5644 5640 5636 5632 5629
5746 5746 5745 5745 5744 5742 5742 5741 5740 5739 5737 5736 5734 5732 5730 5728 5725 5723 5720 5717 5714 5711 5708 5704 5701 5697 5693 5689 5685 5681 5677 5672 5667 5663 5658 5654 5649 5644 5640 5635 5631 5627 5623
5744 5744 5743 5743 5742 5741 5740 5739 5738 5737 5735 5733 5732 5730 5728 5725 5723 5720 5717 5714 5711 5708 5705 5701 5697 5693 5690 5686 5682 5677 5673 5668 5664 5659 5655 5650 5645 5641 5636 5631 5627 5622 5618
5741 5741 5741 5741 5740 5739 5738 5737 5736 5734 5733 5731 5730 5728 5725 5723 5720 5718 5715 5712 5708 5705 5702 5698 5695 5691 5687 5682 5678 5674 5670 5665 5661 5656 5651 5646 5642 5637 5631 5627 5622 5617 5613
Wind_Speed
21 21 21 21 21 20 20 20 21 22 22 22 21 21 22 23 23 24 25 26 26 26 26 26 26 26 26 26 26 25 25 25 25 24 23 24 24 24 24 24 25 25 26
22 23 22 22 22 21 21 21 21 21 21 22 22 23 23 23 24 25 26 26 26 27 27 26 26 26 26 26 25 26 26 26 25 24 23 24 24 25 25 25 25 25 26
23 24 24 23 22 21 20 20 20 20 21 21 23 24 24 24 24 25 26 26 26 26 27 28 27 27 27 26 25 25 25 25 25 24 24 24 24 23 24 24 25 25 25
23 24 23 22 22 21 20 20 20 20 21 21 23 24 25 25 25 26 26 26 26 27 27 27 27 27 27 27 26 25 25 26 25 25 25 25 24 23 22 23 24 25 25
23 23 23 22 21 21 21 21 21 21 21 22 23 24 25 25 26 25 25 25 26 26 25 26 27 27 27 27 26 26 25 25 25 25 25 25 24 24 23 23 23 24 24
23 23 22 22 22 21 21 21 21 22 22 23 24 25 25 25 26 26 25 26 26 26 25 25 25 26 26 25 25 25 25 24 24 25 25 24 24 25 25 24 23 23 24
24 22 22 22 22 22 21 22 22 23 23 23 24 25 25 25 25 25 26 26 25 25 24 24 24 25 26 26 26 25 24 24 24 24 24 25 25 25 25 25 24 24 23
23 23 23 22 22 22 22 22 22 22 23 24 24 23 24 24 25 25 26 26 26 25 23 24 24 24 25 25 25 25 24 24 24 24 25 25 25 25 25 24 24 24 24
24 24 24 22 21 21 22 22 22 21 22 22 22 23 24 24 24 24 25 24 24 23 23 23 23 23 24 24 24 24 24 24 24 25 25 25 25 25 25 25 25 24 24
24 25 24 21 21 21 21 22 21 21 21 22 22 22 23 23 23 23 22 22 22 23 23 23 24 23 23 23 24 24 23 24 25 25 25 25 25 25 25 25 25 25 25
24 24 22 21 20 21 20 21 21 21 21 21 21 21 22 22 22 21 20 21 22 23 23 23 23 23 23 23 23 24 24 24 25 25 25 26 25 25 25 25 25 25 25
23 23 21 21 21 20 20 20 19 19 20 21 21 20 21 21 20 19 20 21 21 22 22 22 22 23 23 24 24 24 24 24 24 24 25 24 25 25 24 24 24 24 24
22 22 21 21 20 19 19 18 19 19 19 20 20 20 21 20 19 19 20 21 21 21 21 21 22 23 24 24 24 23 23 23 23 23 23 23 23 24 24 24 24 24 24
20 20 20 18 17 18 18 18 19 19 19 20 20 19 19 19 19 19 20 20 21 21 20 21 21 23 24 24 24 23 22 23 23 23 23 23 23 23 23 23 24 24 24
18 18 18 17 18 18 18 19 18 19 19 19 19 19 19 18 18 19 19 20 20 20 20 21 21 22 23 24 24 23 23 24 24 23 23 23 23 22 23 23 23 23 23
16 17 16 16 17 18 18 18 18 18 18 18 18 18 18 17 18 18 18 19 19 20 20 21 21 22 23 23 23 23 24 23 24 23 23 23 23 23 23 23 23 24 24
16 17 17 17 16 16 17 16 16 16 16 17 17 17 17 16 16 16 17 18 18 19 20 21 21 22 22 22 22 23 24 23 23 23 23 23 23 23 23 23 23 24 24
15 15 16 15 15 15 16 16 15 15 15 15 15 16 15 15 16 15 16 16 18 19 19 21 21 21 22 22 23 23 24 24 23 23 23 23 23 23 23 24 24 24 24
14 14 13 13 14 14 14 13 13 13 13 13 14 14 14 14 14 15 15 16 17 18 19 21 21 21 22 22 22 22 23 24 24 24 24 24 24 24 23 24 24 24 24
13 12 12 12 12 13 12 12 12 12 12 12 13 14 14 14 14 15 16 17 17 18 20 20 21 21 21 21 22 23 24 25 25 25 25 24 24 24 24 23 23 24 24
12 13 12 12 11 12 12 12 12 12 13 12 13 13 14 14 14 15 16 17 18 19 20 20 21 21 21 21 23 24 25 25 26 25 24 24 23 23 22 22 23 23 23
10 12 12 12 11 11 11 11 12 12 12 13 13 14 14 14 15 15 16 17 18 20 20 20 21 21 22 22 23 24 25 25 26 25 25 24 22 22 23 23 23 23 22
9 10 11 11 11 11 11 11 11 12 12 12 13 14 14 15 15 16 17 18 19 20 20 21 21 21 22 22 22 23 24 24 25 25 25 24 23 23 24 23 23 22 22
9 9 10 10 10 9 11 11 11 12 13 12 13 13 14 15 16 17 17 18 19 19 20 20 20 21 21 21 22 23 24 25 25 26 26 25 25 24 24 23 22 22 22
10 9 10 10 9 11 11 11 11 12 13 13 13 13 14 15 15 16 17 18 18 19 19 20 20 21 22 23 23 24 24 24 25 25 25 25 25 25 24 24 24 23 22
9 8 8 9 9 10 10 10 11 12 12 13 13 14 15 16 17 18 18 18 19 19 19 20 20 21 23 24 24 24 24 25 25 25 25 25 26 26 26 25 24 24 22
Wind_Direction
290 290 292 291 288 289 288 287 285 286 289 290 292 295 296 296 299 302 303 302 302 301 300 300 300 301 302 302 302 301 300 298 296 293 291 290 288 288 287 285 282 280 278
289 290 291 292 290 289 288 287 288 287 289 290 291 296 297 298 300 301 302 301 301 302 302 301 301 301 301 301 301 300 299 298 297 296 292 291 289 288 288 288 285 282 280
289 290 290 290 291 290 289 289 290 290 291 291 293 296 297 300 301 302 303 303 302 301 300 298 299 300 300 300 299 298 298 298 298 297 295 292 291 289 288 289 286 283 281
288 289 289 288 290 289 287 287 290 293 295 296 295 297 299 300 301 303 303 304 303 302 298 298 299 301 300 300 300 300 299 298 297 297 297 295 292 290 289 290 288 286 284
289 290 289 286 286 287 288 287 289 292 294 297 297 299 301 302 302 304 303 303 303 302 299 299 301 301 300 301 302 302 301 299 298 297 297 296 294 292 292 294 291 289 286
290 289 289 288 285 285 286 286 289 291 293 296 299 300 301 302 303 304 305 305 303 301 300 301 302 301 301 301 302 302 301 299 299 298 297 296 295 294 293 293 292 291 290
287 286 287 288 286 283 285 284 287 290 293 295 298 300 301 302 304 305 304 304 302 302 303 301 302 303 302 301 302 301 300 300 300 299 298 296 296 295 293 293 293 291 288
288 287 285 286 286 285 286 288 287 289 292 293 296 300 302 302 304 306 306 306 304 304 303 303 304 306 304 303 301 300 299 300 301 301 300 298 296 294 293 292 292 291 289
290 288 288 287 284 284 287 290 288 290 294 296 298 300 301 303 304 306 307 308 308 307 308 307 307 307 307 305 303 300 300 301 301 301 300 299 297 293 291 291 291 290 289
289 290 288 284 284 286 288 290 291 292 293 295 297 300 303 306 306 307 306 307 309 308 307 308 307 306 308 308 306 305 303 303 302 301 301 300 298 295 293 292 292 290 290
290 290 286 285 286 286 288 291 292 291 294 296 297 300 303 305 306 308 309 310 310 310 308 308 309 310 311 309 310 309 306 305 304 303 302 300 298 297 295 294 292 290 290
290 287 285 286 287 287 288 290 291 294 296 298 300 302 304 305 306 307 309 310 311 311 312 312 312 312 312 312 311 312 309 307 307 306 305 304 302 301 298 297 294 292 292
290 287 289 288 286 286 287 290 292 294 296 299 301 303 305 305 305 308 311 310 310 313 314 314 314 315 315 315 315 315 312 312 311 310 309 307 306 304 300 298 297 294 292
290 289 292 290 290 289 290 291 294 293 294 298 301 302 304 305 306 308 311 311 311 313 316 316 316 317 317 316 316 315 314 314 314 313 312 310 307 305 301 298 298 295 294
288 291 294 292 291 292 291 292 293 292 295 298 300 302 303 304 306 308 309 311 313 315 318 319 318 318 318 317 316 317 315 314 314 314 313 312 309 305 302 301 299 297 296
290 290 290 293 292 292 292 292 292 293 296 298 299 302 305 306 308 310 312 314 315 317 320 320 319 318 318 318 319 320 319 318 317 316 315 313 309 306 305 303 301 300 298
288 289 290 291 294 295 295 293 296 294 297 298 301 304 306 307 309 310 313 315 317 318 320 322 321 322 322 322 322 322 321 321 320 318 317 316 316 312 309 307 305 303 301
286 290 293 293 296 297 296 296 296 296 298 301 305 306 307 308 308 312 315 316 318 319 321 323 324 323 324 323 323 323 323 322 321 320 319 317 316 314 311 308 306 305 303
284 291 292 295 296 300 299 304 306 305 304 306 310 311 312 312 313 316 318 320 320 321 323 325 326 326 326 325 326 326 325 325 324 321 319 319 318 315 313 310 307 305 303
283 288 291 291 296 302 307 309 310 312 312 312 316 315 315 317 320 320 321 322 323 324 325 327 328 327 327 327 327 326 326 326 326 323 322 322 319 316 315 313 309 306 304
281 285 288 293 298 303 304 307 311 314 316 315 315 319 320 322 323 324 324 325 325 326 327 328 329 329 329 328 326 325 326 327 328 327 326 325 323 320 318 315 313 311 308
280 286 291 295 297 301 304 306 309 313 314 315 315 317 320 322 323 325 326 327 327 327 327 328 329 329 330 329 328 328 328 329 329 328 328 327 326 324 322 318 316 315 314
280 287 294 297 297 298 302 306 310 314 315 315 316 317 318 320 322 325 326 327 327 328 327 328 329 330 330 329 330 330 331 331 332 332 331 329 328 326 324 322 320 318 317
279 284 292 297 297 297 303 305 308 314 316 317 319 320 321 321 323 326 327 328 330 331 330 329 331 332 333 333 332 332 332 332 333 333 333 332 331 331 328 326 325 323 322
275 281 288 295 298 300 302 303 310 314 317 320 322 324 324 325 327 330 330 330 332 333 333 332 334 335 336 336 334 332 332 333 334 335 336 335 334 332 332 331 329 327 324
275 280 287 294 300 304 303 303 310 317 320 322 324 325 328 330 331 331 331 331 332 334 335 335 335 335 335 335 335 334 334 335 336 336 336 335 334 334 334 333 331 329 327